Tracking 18980 objects as of 19-Feb-2018
HD Live streaming from Space Station
objects crossing your sky now

FENGYUN 1C DEB

Track FENGYUN 1C DEB now!
10-day predictions


NORAD ID: 30619
Int'l Code: 1999-025ANA
Perigee: 616.8 km
Apogee: 945.8 km
Inclination: 98.6 °
Period: 100.3 minutes
Semi major axis: 7152 km
RCS: 0.0078 m2 (small)
Launch date: May 10, 1999
Source: People's Republic of China (PRC)
Launch site: Taiyaun Space Center, China (TSC)

Note: This is SATELLITE DEBRIS
aabbcc
Your satellite tracking list
Your tracking list is empty




NASA's NSSDC Master Catalog

Two Line Element Set (TLE):
1 30619U 99025ANA 18050.31033628  .00000082  00000-0  36039-4 0  9999
2 30619  98.6304  82.9896 0229979 296.7430 119.1874 14.35277836579763
Source of the keplerian elements: AFSPC